• In Hungary
  • List of Countries
  • For 7 days
  • Water Temperature
  • Satellite Maps
  • Weather Map
  • News
  • Weather Widgets
  • user-avatar
    Login

    Hourly Weather Dallas

    Today, 21 June, Thursday

    Time Temperature Precipitation Wind Pressure Humidity
    00:00 +27°C° 0.3 mm 3 mps 747 mmHg 87%
    01:00 +27°C° 0 mm 3 mps 747 mmHg 88%
    02:00 +26°C° 0 mm 2 mps 747 mmHg 89%
    03:00 +26°C° 0 mm 2 mps 747 mmHg 90%
    04:00 +26°C° 0 mm 2 mps 747 mmHg 90%
    05:00 +26°C° 0 mm 2 mps 747 mmHg 90%
    06:00 +26°C° 0 mm 1 mps 747 mmHg 90%
    07:00 +28°C° 0 mm 2 mps 747 mmHg 82%
    08:00 +29°C° 0 mm 2 mps 748 mmHg 74%
    09:00 +31°C° 0 mm 2 mps 748 mmHg 66%
    10:00 +33°C° 0 mm 1 mps 748 mmHg 58%
    11:00 +34°C° 0 mm 1 mps 748 mmHg 49%
    12:00 +36°C° 0 mm 1 mps 748 mmHg 40%
    13:00 +37°C° 0 mm 1 mps 747 mmHg 37%
    14:00 +37°C° 0 mm 1 mps 747 mmHg 34%
    15:00 +39°C° 0 mm 1 mps 746 mmHg 31%
    16:00 +39°C° 0 mm 1 mps 746 mmHg 32%
    17:00 +39°C° 0 mm 1 mps 746 mmHg 33%
    18:00 +39°C° 0 mm 2 mps 745 mmHg 35%
    19:00 +37°C° 0 mm 2 mps 746 mmHg 39%
    20:00 +35°C° 0 mm 3 mps 746 mmHg 43%
    21:00 +34°C° 0 mm 4 mps 746 mmHg 48%
    22:00 +33°C° 0 mm 5 mps 746 mmHg 53%
    23:00 +33°C° 0 mm 5 mps 746 mmHg 59%

    Tomorrow, 22 June, Friday

    Time Temperature Precipitation Wind Pressure Humidity
    00:00 +32°C° 0 mm 6 mps 746 mmHg 64%
    01:00 +32°C° 0 mm 6 mps 746 mmHg 66%
    02:00 +30°C° 0 mm 6 mps 745 mmHg 68%
    03:00 +30°C° 0 mm 6 mps 745 mmHg 70%
    04:00 +29°C° 0 mm 6 mps 745 mmHg 71%
    05:00 +29°C° 0 mm 5 mps 745 mmHg 72%
    06:00 +29°C° 0 mm 5 mps 746 mmHg 73%
    07:00 +30°C° 0 mm 5 mps 746 mmHg 68%
    08:00 +33°C° 0 mm 5 mps 746 mmHg 62%
    09:00 +34°C° 0 mm 5 mps 747 mmHg 57%
    10:00 +36°C° 0 mm 4 mps 746 mmHg 51%
    11:00 +37°C° 0 mm 4 mps 746 mmHg 45%
    12:00 +39°C° 0 mm 3 mps 746 mmHg 40%
    13:00 +41°C° 0 mm 4 mps 745 mmHg 37%
    14:00 +42°C° 0 mm 4 mps 745 mmHg 34%
    15:00 +43°C° 0 mm 4 mps 744 mmHg 31%
    16:00 +42°C° 0 mm 4 mps 744 mmHg 33%
    17:00 +41°C° 0 mm 5 mps 743 mmHg 35%
    18:00 +41°C° 0 mm 5 mps 743 mmHg 36%
    19:00 +39°C° 0 mm 6 mps 743 mmHg 42%
    20:00 +38°C° 0 mm 6 mps 743 mmHg 47%
    21:00 +35°C° 0 mm 7 mps 742 mmHg 53%
    22:00 +35°C° 0 mm 7 mps 743 mmHg 55%
    23:00 +34°C° 0 mm 7 mps 743 mmHg 57%

    Day after tomorrow, 23 June, Saturday

    Time Temperature Precipitation Wind Pressure Humidity
    00:00 +33°C° 0 mm 8 mps 743 mmHg 59%
    01:00 +33°C° 0 mm 8 mps 743 mmHg 63%
    02:00 +32°C° 0 mm 8 mps 743 mmHg 66%
    03:00 +31°C° 0 mm 8 mps 743 mmHg 70%
    04:00 +31°C° 0 mm 8 mps 743 mmHg 71%
    05:00 +29°C° 0 mm 8 mps 743 mmHg 72%
    06:00 +29°C° 0 mm 8 mps 743 mmHg 73%
    07:00 +30°C° 0 mm 7 mps 743 mmHg 67%
    08:00 +32°C° 0 mm 7 mps 744 mmHg 61%
    09:00 +34°C° 0 mm 7 mps 744 mmHg 55%
    10:00 +35°C° 0 mm 7 mps 744 mmHg 49%
    11:00 +38°C° 0 mm 8 mps 744 mmHg 43%
    12:00 +39°C° 0 mm 9 mps 743 mmHg 37%
    13:00 +40°C° 0 mm 9 mps 743 mmHg 36%
    14:00 +42°C° 0 mm 9 mps 742 mmHg 34%
    15:00 +43°C° 0 mm 9 mps 741 mmHg 33%
    16:00 +42°C° 0 mm 9 mps 741 mmHg 35%
    17:00 +42°C° 0 mm 9 mps 741 mmHg 38%
    18:00 +40°C° 0 mm 9 mps 740 mmHg 41%
    19:00 +39°C° 0.1 mm 9 mps 741 mmHg 47%
    20:00 +37°C° 0.1 mm 9 mps 741 mmHg 52%
    21:00 +36°C° 0.1 mm 10 mps 742 mmHg 58%
    22:00 +34°C° 0.2 mm 8 mps 742 mmHg 62%
    23:00 +33°C° 0.2 mm 7 mps 743 mmHg 66%

    24 June, Sunday

    Time Temperature Precipitation Wind Pressure Humidity
    00:00 +32°C° 0.2 mm 5 mps 744 mmHg 70%
    01:00 +30°C° 0 mm 6 mps 744 mmHg 72%
    02:00 +29°C° 0 mm 6 mps 744 mmHg 75%
    03:00 +29°C° 0 mm 7 mps 744 mmHg 78%
    04:00 +28°C° 0 mm 7 mps 744 mmHg 78%
    05:00 +28°C° 0 mm 7 mps 745 mmHg 78%
    06:00 +28°C° 0 mm 7 mps 745 mmHg 78%
    07:00 +29°C° 0 mm 7 mps 745 mmHg 72%
    08:00 +32°C° 0 mm 7 mps 746 mmHg 67%
    09:00 +33°C° 0 mm 7 mps 747 mmHg 61%
    10:00 +35°C° 0 mm 7 mps 746 mmHg 55%
    11:00 +36°C° 0 mm 7 mps 746 mmHg 50%
    12:00 +39°C° 0 mm 7 mps 746 mmHg 45%
    13:00 +40°C° 0 mm 7 mps 746 mmHg 42%
    14:00 +40°C° 0 mm 7 mps 745 mmHg 40%
    15:00 +41°C° 0 mm 7 mps 745 mmHg 38%
    16:00 +41°C° 0 mm 7 mps 745 mmHg 41%
    17:00 +40°C° 0 mm 7 mps 745 mmHg 43%
    18:00 +40°C° 0 mm 7 mps 745 mmHg 46%
    19:00 +38°C° 0 mm 7 mps 745 mmHg 51%
    20:00 +36°C° 0 mm 7 mps 745 mmHg 57%
    21:00 +34°C° 0 mm 7 mps 746 mmHg 62%
    22:00 +33°C° 0 mm 7 mps 746 mmHg 65%
    23:00 +32°C° 0 mm 7 mps 746 mmHg 68%

    25 June, Monday

    Time Temperature Precipitation Wind Pressure Humidity
    00:00 +32°C° 0 mm 6 mps 747 mmHg 71%
    01:00 +30°C° 0 mm 6 mps 747 mmHg 73%
    02:00 +29°C° 0 mm 7 mps 747 mmHg 75%
    03:00 +28°C° 0 mm 7 mps 747 mmHg 78%
    04:00 +28°C° 0 mm 7 mps 747 mmHg 78%
    05:00 +28°C° 0 mm 7 mps 748 mmHg 79%
    06:00 +27°C° 0 mm 7 mps 748 mmHg 80%
    07:00 +29°C° 0 mm 7 mps 748 mmHg 74%
    08:00 +30°C° 0 mm 7 mps 749 mmHg 68%
    09:00 +32°C° 0 mm 7 mps 749 mmHg 62%
    10:00 +34°C° 0 mm 7 mps 749 mmHg 56%
    11:00 +36°C° 0 mm 7 mps 749 mmHg 50%
    12:00 +39°C° 0 mm 7 mps 749 mmHg 44%
    13:00 +39°C° 0 mm 8 mps 748 mmHg 42%
    14:00 +40°C° 0 mm 8 mps 748 mmHg 39%
    15:00 +41°C° 0 mm 8 mps 747 mmHg 37%
    16:00 +40°C° 0 mm 8 mps 747 mmHg 38%
    17:00 +40°C° 0 mm 7 mps 747 mmHg 39%
    18:00 +39°C° 0 mm 7 mps 747 mmHg 40%
    19:00 +38°C° 0 mm 7 mps 747 mmHg 45%
    20:00 +35°C° 0 mm 7 mps 748 mmHg 49%
    21:00 +34°C° 0 mm 7 mps 748 mmHg 54%
    22:00 +33°C° 0 mm 7 mps 749 mmHg 58%
    23:00 +32°C° 0 mm 7 mps 749 mmHg 62%

    26 June, Tuesday

    Time Temperature Precipitation Wind Pressure Humidity
    00:00 +30°C° 0 mm 7 mps 749 mmHg 66%
    01:00 +30°C° 0 mm 7 mps 749 mmHg 70%
    02:00 +29°C° 0 mm 7 mps 749 mmHg 75%
    03:00 +28°C° 0 mm 7 mps 748 mmHg 80%
    04:00 +28°C° 0 mm 6 mps 749 mmHg 80%
    05:00 +28°C° 0 mm 6 mps 749 mmHg 80%
    06:00 +28°C° 0 mm 6 mps 750 mmHg 81%
    07:00 +29°C° 0 mm 6 mps 750 mmHg 75%
    08:00 +30°C° 0 mm 6 mps 750 mmHg 70%
    09:00 +32°C° 0 mm 5 mps 751 mmHg 65%
    10:00 +34°C° 0 mm 6 mps 750 mmHg 58%
    11:00 +36°C° 0 mm 6 mps 750 mmHg 51%
    12:00 +39°C° 0 mm 6 mps 749 mmHg 44%
    13:00 +40°C° 0 mm 7 mps 749 mmHg 41%
    14:00 +40°C° 0 mm 7 mps 748 mmHg 38%
    15:00 +41°C° 0 mm 7 mps 747 mmHg 35%
    16:00 +41°C° 0 mm 7 mps 747 mmHg 36%
    17:00 +40°C° 0 mm 7 mps 747 mmHg 37%
    18:00 +40°C° 0 mm 7 mps 747 mmHg 38%
    19:00 +38°C° 0 mm 7 mps 747 mmHg 43%
    20:00 +36°C° 0 mm 7 mps 747 mmHg 48%
    21:00 +34°C° 0 mm 7 mps 747 mmHg 53%
    22:00 +33°C° 0 mm 7 mps 747 mmHg 57%
    23:00 +33°C° 0 mm 7 mps 747 mmHg 60%
    Show more